カタログに戻る

STARLINK-32378

運用中通信VLEO
NORAD 61064·PAYLOAD·🇺🇸 United States

打ち上げ Sep 13, 2024 から Vandenberg Space Force Base

Loading…

次のパス (今後24時間)

TLE

最新Source: CelesTrak SupGP

元期: Sep 14, 2026, 15:16 UTC

1 61064C 24164Q   26257.63659722  .00013846  00000+0  44540-3 0  2574
2 61064  53.1590 292.1755 0001144  60.8084 334.3673 15.31684332    15

AllMySatでSTARLINK-32378をリアルタイム追跡

Download on the App Store